Change the Weather History Date:

Wednesday, February 15, 2012

  Actual Average Record
Temperature  
Mean Temperature 37 °F -  
Max Temperature 46 °F 41 °F 76 °F (1949)
Min Temperature 27 °F 20 °F -10 °F (1943)
Degree Days  
Heating Degree Days 28    
Moisture  
Dew Point 34 °F    
Average Humidity 85    
Maximum Humidity 97    
Minimum Humidity 60    
Precipitation  
Precipitation 0.01 in - - ()
Sea Level Pressure  
Sea Level Pressure 30.17 in    
Wind  
Wind Speed 2 mph (NNW)    
Max Wind Speed 9 mph    
Max Gust Speed 30 mph    
Visibility 6 miles    
Events Rain    
Averages and records for this station are not official NWS values.
T = Trace of Precipitation, MM = Missing Value Source: NWS Daily Summary

Daily Weather History Graph

Daily Weather History Graph

Search for Another Location

Airport or City:

Trip Planner

Search our weather history database for the weather conditions in past years. The results will help you decide how hot, cold, wet, or windy it might be!

Date:

Astronomy

Feb. 15, 2012 Rise Set
Actual Time 6:53 AM EST 5:33 PM EST
Civil Twilight 6:25 AM EST 6:01 PM EST
Nautical Twilight 5:53 AM EST 6:33 PM EST
Astronomical Twilight 5:21 AM EST 7:04 PM EST
Moon 1:44 AM EST (2/15) 11:25 AM EST (2/15)
Length of Visible Light 11h 36m
Length of Day
10h 39m
Last Quarter, 39% of the Moon is Illuminated
Feb 15
Last Quarter
Feb 21
New
Feb 29
First Quarter
Mar 8
Full
Mar 14
Last Quarter

Hourly Weather History & Observations

Time (EST) Temp. Windchill Dew Point Humidity Pressure Visibility Wind Dir Wind Speed Gust Speed Precip Events Conditions
12:53 AM 37.0 °F - 34.0 °F 89% 30.05 in 8.0 mi Calm Calm - 0.00 in   Overcast
1:53 AM 36.0 °F - 34.0 °F 93% 30.05 in 6.0 mi Calm Calm - N/A   Overcast
2:53 AM 37.0 °F 34.5 °F 34.0 °F 89% 30.06 in 6.0 mi NW 3.5 mph - N/A   Overcast
3:53 AM 36.0 °F - 34.0 °F 93% 30.06 in 5.0 mi Calm Calm - N/A   Overcast
4:53 AM 37.0 °F - 35.1 °F 93% 30.07 in 5.0 mi Calm Calm - N/A   Overcast
5:53 AM 37.0 °F 34.5 °F 34.0 °F 89% 30.07 in 5.0 mi North 3.5 mph - N/A   Overcast
6:53 AM 36.0 °F - 35.1 °F 97% 30.11 in 3.0 mi Calm Calm - N/A   Overcast
7:23 AM 37.4 °F 30.8 °F 35.6 °F 93% 30.11 in 2.0 mi NNW 9.2 mph 29.9 mph N/A   Overcast
7:53 AM 37.0 °F - 35.1 °F 93% 30.13 in 3.0 mi Calm Calm - N/A   Overcast
8:03 AM 37.4 °F - 35.6 °F 93% 30.13 in 2.5 mi Calm Calm - N/A   Overcast
8:41 AM 37.4 °F - 35.6 °F 93% 30.14 in 3.0 mi Calm Calm - N/A   Overcast
8:53 AM 37.9 °F 33.5 °F 36.0 °F 93% 30.15 in 2.5 mi Variable 5.8 mph 24.2 mph N/A   Overcast
9:09 AM 37.4 °F - 35.6 °F 93% 30.16 in 3.0 mi Calm Calm - 0.00 in Rain Light Rain
9:53 AM 39.0 °F - 37.0 °F 93% 30.18 in 2.5 mi Calm Calm - 0.00 in Rain Light Rain
10:04 AM 39.2 °F - 35.6 °F 87% 30.17 in 3.0 mi Calm Calm - 0.01 in Rain Light Rain
10:17 AM 39.2 °F - 35.6 °F 87% 30.17 in 3.0 mi Calm Calm - 0.01 in Rain Light Rain
10:53 AM 39.9 °F - 37.0 °F 89% 30.19 in 3.0 mi Calm Calm - 0.01 in Rain Light Rain
11:30 AM 41.0 °F - 37.4 °F 87% 30.19 in 4.0 mi Calm Calm - 0.00 in   Overcast
11:53 AM 41.0 °F - 37.0 °F 86% 30.19 in 5.0 mi Calm Calm - 0.00 in   Overcast
12:53 PM 43.0 °F 38.2 °F 37.0 °F 80% 30.18 in 6.0 mi NW 8.1 mph - N/A   Haze
1:53 PM 44.6 °F 42.2 °F 35.6 °F 71% 30.18 in 9.0 mi Variable 4.6 mph - N/A   Overcast
2:03 PM 44.6 °F 43.1 °F 35.6 °F 71% 30.17 in 10.0 mi NNW 3.5 mph - N/A   Overcast
2:53 PM 46.0 °F 41.4 °F 35.1 °F 66% 30.18 in 10.0 mi North 9.2 mph - N/A   Overcast
3:53 PM 46.0 °F 43.1 °F 34.0 °F 63% 30.18 in 10.0 mi NW 5.8 mph - N/A   Overcast
4:53 PM 45.0 °F 40.6 °F 33.1 °F 63% 30.21 in 10.0 mi NNW 8.1 mph - N/A   Overcast
5:53 PM 44.1 °F 42.5 °F 30.9 °F 60% 30.24 in 10.0 mi NNW 3.5 mph - N/A   Overcast
6:53 PM 39.0 °F - 32.0 °F 76% 30.26 in 10.0 mi Calm Calm - N/A   Mostly Cloudy
7:53 PM 35.1 °F - 30.0 °F 82% 30.27 in 10.0 mi Calm Calm - N/A   Clear
8:53 PM 32.0 °F - 27.0 °F 82% 30.28 in 7.0 mi Calm Calm - N/A   Clear
9:53 PM 30.0 °F - 27.0 °F 88% 30.29 in 8.0 mi Calm Calm - N/A   Clear
10:53 PM 28.0 °F - 26.1 °F 92% 30.29 in 6.0 mi Calm Calm - N/A   Clear
11:53 PM 27.0 °F - 25.0 °F 92% 30.27 in 7.0 mi Calm Calm - N/A   Clear